{"data":{"norad_id":50477,"epoch":"2026-09-19T22:51:09.335232Z","epoch_age_seconds":73123,"freshness":"FRESH","line1":"1 50477U 21132J   26262.95219138  .00000079  00000+0  16718-3 0  9999","line2":"2 50477  87.9164 316.6285 0002164  96.8841 263.2538 13.18685860234105","mean_motion":13.1868586,"eccentricity":0.0002164,"inclination_deg":87.9164,"raan_deg":316.6285,"arg_perigee_deg":96.8841,"mean_anomaly_deg":263.2538,"bstar":0.00016718,"rev_number":23410,"period_min":109.1996239347,"perigee_km":1188.1059731275,"apogee_km":1191.3813518782,"semimajor_km":7567.8806625029,"source":"CELESTRAK","updated_at":"2026-09-20T09:00:44.700873Z"}}